• în România
  • Lista ţărilor
  • Pe 7 zile
  • Temperatura apei
  • Hartă satelitară
  • Meteo pe hartă
  • Widget-uri
  • user-avatar
    Intrare

    Meteo pe oră la Linz

    Astăzi, 25 Iunie, Luni

    Timp Temperatura Precipitaţii Vânt Presiune Umiditate
    00:00 +12°C° 1,3 mm 0 m/s 735 mmHg 96%
    01:00 +12°C° 0 mm 0 m/s 735 mmHg 96%
    02:00 +12°C° 1,5 mm 0 m/s 735 mmHg 97%
    03:00 +11°C° 1,5 mm 0 m/s 735 mmHg 97%
    04:00 +11°C° 1,5 mm 0 m/s 735 mmHg 97%
    05:00 +12°C° 0,7 mm 0 m/s 736 mmHg 97%
    06:00 +12°C° 0,7 mm 0 m/s 736 mmHg 96%
    07:00 +12°C° 0 mm 0 m/s 736 mmHg 94%
    08:00 +13°C° 0,3 mm 0 m/s 736 mmHg 91%
    09:00 +16°C° 0,3 mm 1 m/s 736 mmHg 87%
    10:00 +18°C° 0,3 mm 1 m/s 736 mmHg 83%
    11:00 +18°C° 0,4 mm 1 m/s 736 mmHg 79%
    12:00 +18°C° 0,4 mm 2 m/s 736 mmHg 75%
    13:00 +18°C° 0 mm 2 m/s 737 mmHg 71%
    14:00 +19°C° 0,2 mm 2 m/s 737 mmHg 69%
    15:00 +19°C° 0,2 mm 2 m/s 737 mmHg 67%
    16:00 +19°C° 0,2 mm 2 m/s 737 mmHg 66%
    17:00 +18°C° 0,1 mm 2 m/s 737 mmHg 71%
    18:00 +19°C° 0,1 mm 1 m/s 737 mmHg 77%
    19:00 +18°C° 0,1 mm 1 m/s 737 mmHg 82%
    20:00 +16°C° 0,2 mm 1 m/s 737 mmHg 85%
    21:00 +14°C° 0,2 mm 1 m/s 737 mmHg 89%
    22:00 +13°C° 0,2 mm 1 m/s 738 mmHg 92%
    23:00 +12°C° 0,2 mm 1 m/s 738 mmHg 93%

    Mâine, 26 Iunie, Marţi

    Timp Temperatura Precipitaţii Vânt Presiune Umiditate
    00:00 +12°C° 0,2 mm 1 m/s 738 mmHg 93%
    01:00 +12°C° 0,2 mm 1 m/s 738 mmHg 94%
    02:00 +12°C° 0 mm 1 m/s 738 mmHg 94%
    03:00 +11°C° 0 mm 1 m/s 738 mmHg 94%
    04:00 +11°C° 0 mm 1 m/s 738 mmHg 94%
    05:00 +13°C° 0 mm 1 m/s 737 mmHg 92%
    06:00 +14°C° 0 mm 1 m/s 737 mmHg 89%
    07:00 +15°C° 0 mm 1 m/s 737 mmHg 86%
    08:00 +18°C° 0,2 mm 1 m/s 737 mmHg 81%
    09:00 +19°C° 0,2 mm 1 m/s 737 mmHg 77%
    10:00 +19°C° 0,2 mm 2 m/s 737 mmHg 72%
    11:00 +20°C° 0,3 mm 2 m/s 737 mmHg 68%
    12:00 +21°C° 0,3 mm 2 m/s 737 mmHg 65%
    13:00 +23°C° 0,3 mm 2 m/s 736 mmHg 62%
    14:00 +21°C° 0,6 mm 2 m/s 736 mmHg 66%
    15:00 +21°C° 0,6 mm 2 m/s 736 mmHg 70%
    16:00 +21°C° 0,6 mm 2 m/s 736 mmHg 74%
    17:00 +21°C° 0,6 mm 1 m/s 736 mmHg 78%
    18:00 +20°C° 0,6 mm 1 m/s 736 mmHg 83%
    19:00 +19°C° 0,6 mm 1 m/s 736 mmHg 87%
    20:00 +16°C° 0,3 mm 1 m/s 737 mmHg 89%
    21:00 +15°C° 0,3 mm 1 m/s 737 mmHg 91%
    22:00 +14°C° 0,3 mm 1 m/s 737 mmHg 93%
    23:00 +14°C° 0,3 mm 1 m/s 737 mmHg 94%

    Poimâine, 27 Iunie, Miercuri

    Timp Temperatura Precipitaţii Vânt Presiune Umiditate
    00:00 +13°C° 0,3 mm 1 m/s 737 mmHg 95%
    01:00 +13°C° 0,3 mm 1 m/s 737 mmHg 95%
    02:00 +13°C° 0,5 mm 1 m/s 737 mmHg 96%
    03:00 +13°C° 0,5 mm 1 m/s 736 mmHg 96%
    04:00 +12°C° 0,5 mm 1 m/s 736 mmHg 97%
    05:00 +13°C° 0,5 mm 1 m/s 736 mmHg 95%
    06:00 +14°C° 0,5 mm 1 m/s 736 mmHg 94%
    07:00 +15°C° 0,5 mm 1 m/s 736 mmHg 93%
    08:00 +16°C° 0,8 mm 2 m/s 736 mmHg 89%
    09:00 +17°C° 0,8 mm 2 m/s 736 mmHg 84%
    10:00 +18°C° 0,8 mm 2 m/s 736 mmHg 80%
    11:00 +18°C° 0,7 mm 2 m/s 736 mmHg 77%
    12:00 +19°C° 0,7 mm 2 m/s 736 mmHg 75%
    13:00 +20°C° 0,7 mm 2 m/s 736 mmHg 72%
    14:00 +20°C° 0,7 mm 2 m/s 736 mmHg 74%
    15:00 +20°C° 0,7 mm 2 m/s 736 mmHg 75%
    16:00 +19°C° 0,7 mm 2 m/s 736 mmHg 77%
    17:00 +19°C° 0,5 mm 2 m/s 736 mmHg 81%
    18:00 +18°C° 0,5 mm 2 m/s 736 mmHg 85%
    19:00 +18°C° 0,5 mm 1 m/s 736 mmHg 90%
    20:00 +18°C° 0,5 mm 1 m/s 736 mmHg 91%
    21:00 +16°C° 0,5 mm 1 m/s 736 mmHg 93%
    22:00 +15°C° 0,5 mm 2 m/s 736 mmHg 95%
    23:00 +15°C° 0,5 mm 2 m/s 736 mmHg 96%

    28 Iunie, Joi

    Timp Temperatura Precipitaţii Vânt Presiune Umiditate
    00:00 +15°C° 0,5 mm 2 m/s 735 mmHg 96%
    01:00 +15°C° 0,5 mm 2 m/s 735 mmHg 97%
    02:00 +15°C° 0,1 mm 2 m/s 735 mmHg 97%
    03:00 +15°C° 0,1 mm 2 m/s 734 mmHg 97%
    04:00 +15°C° 0,1 mm 2 m/s 734 mmHg 97%
    05:00 +14°C° 2,3 mm 3 m/s 733 mmHg 97%
    06:00 +16°C° 2,3 mm 3 m/s 733 mmHg 97%
    07:00 +16°C° 2,3 mm 3 m/s 733 mmHg 97%
    08:00 +16°C° 3,6 mm 3 m/s 733 mmHg 97%
    09:00 +16°C° 3,6 mm 3 m/s 732 mmHg 97%
    10:00 +16°C° 3,6 mm 3 m/s 732 mmHg 97%
    11:00 +16°C° 2,9 mm 3 m/s 732 mmHg 97%
    12:00 +16°C° 2,9 mm 3 m/s 732 mmHg 97%
    13:00 +17°C° 2,9 mm 3 m/s 732 mmHg 96%
    14:00 +17°C° 1,1 mm 2 m/s 732 mmHg 96%
    15:00 +17°C° 1,1 mm 2 m/s 732 mmHg 96%
    16:00 +17°C° 1,1 mm 2 m/s 732 mmHg 96%
    17:00 +17°C° 1,2 mm 2 m/s 732 mmHg 96%
    18:00 +18°C° 1,2 mm 1 m/s 732 mmHg 96%
    19:00 +18°C° 1,2 mm 1 m/s 732 mmHg 96%
    20:00 +16°C° 0,5 mm 1 m/s 732 mmHg 97%
    21:00 +16°C° 0,5 mm 1 m/s 732 mmHg 97%
    22:00 +16°C° 0,5 mm 1 m/s 733 mmHg 97%
    23:00 +16°C° 0,1 mm 1 m/s 733 mmHg 97%

    29 Iunie, Vineri

    Timp Temperatura Precipitaţii Vânt Presiune Umiditate
    00:00 +16°C° 0,1 mm 1 m/s 732 mmHg 97%
    01:00 +16°C° 0,1 mm 1 m/s 732 mmHg 97%
    02:00 +16°C° 0,1 mm 1 m/s 732 mmHg 97%
    03:00 +16°C° 0,1 mm 1 m/s 732 mmHg 97%
    04:00 +16°C° 0,1 mm 1 m/s 732 mmHg 97%
    05:00 +16°C° 0,3 mm 1 m/s 732 mmHg 97%
    06:00 +18°C° 0,3 mm 1 m/s 732 mmHg 97%
    07:00 +17°C° 0,3 mm 2 m/s 732 mmHg 97%
    08:00 +18°C° 0,5 mm 2 m/s 732 mmHg 95%
    09:00 +18°C° 0,5 mm 2 m/s 732 mmHg 94%
    10:00 +19°C° 0,5 mm 2 m/s 732 mmHg 93%
    11:00 +19°C° 0,3 mm 2 m/s 732 mmHg 92%
    12:00 +20°C° 0,3 mm 2 m/s 732 mmHg 91%
    13:00 +20°C° 0,3 mm 2 m/s 731 mmHg 90%
    14:00 +21°C° 0,5 mm 2 m/s 731 mmHg 89%
    15:00 +23°C° 0,5 mm 2 m/s 731 mmHg 88%
    16:00 +24°C° 0,5 mm 1 m/s 731 mmHg 87%
    17:00 +23°C° 0,7 mm 1 m/s 731 mmHg 89%
    18:00 +23°C° 0,7 mm 1 m/s 731 mmHg 91%
    19:00 +22°C° 0,7 mm 1 m/s 731 mmHg 92%
    20:00 +22°C° 0,4 mm 1 m/s 732 mmHg 93%
    21:00 +21°C° 0,4 mm 1 m/s 732 mmHg 94%
    22:00 +20°C° 0,4 mm 1 m/s 733 mmHg 95%
    23:00 +19°C° 0,1 mm 1 m/s 733 mmHg 95%

    30 Iunie, Sâmbătă

    Timp Temperatura Precipitaţii Vânt Presiune Umiditate
    00:00 +19°C° 0,1 mm 1 m/s 733 mmHg 95%
    01:00 +18°C° 0,1 mm 1 m/s 733 mmHg 95%
    02:00 +18°C° 0 mm 1 m/s 733 mmHg 95%
    03:00 +18°C° 0 mm 1 m/s 733 mmHg 95%
    04:00 +16°C° 0 mm 1 m/s 733 mmHg 95%
    05:00 +18°C° 0 mm 1 m/s 733 mmHg 93%
    06:00 +20°C° 0 mm 1 m/s 733 mmHg 91%
    07:00 +21°C° 0 mm 1 m/s 733 mmHg 88%
    08:00 +23°C° 0 mm 1 m/s 733 mmHg 78%
    09:00 +24°C° 0 mm 2 m/s 734 mmHg 68%
    10:00 +26°C° 0 mm 2 m/s 734 mmHg 58%
    11:00 +27°C° 0 mm 2 m/s 734 mmHg 57%
    12:00 +28°C° 0 mm 3 m/s 733 mmHg 55%
    13:00 +28°C° 0 mm 3 m/s 733 mmHg 53%
    14:00 +28°C° 0 mm 3 m/s 733 mmHg 53%
    15:00 +28°C° 0 mm 3 m/s 733 mmHg 54%
    16:00 +28°C° 0 mm 3 m/s 733 mmHg 55%
    17:00 +26°C° 0 mm 3 m/s 734 mmHg 61%
    18:00 +25°C° 0 mm 3 m/s 734 mmHg 67%
    19:00 +22°C° 0 mm 3 m/s 734 mmHg 73%
    20:00 +20°C° 0 mm 2 m/s 734 mmHg 78%
    21:00 +19°C° 0 mm 2 m/s 735 mmHg 82%
    22:00 +17°C° 0 mm 2 m/s 735 mmHg 86%
    23:00 +16°C° 0 mm 2 m/s 735 mmHg 86%
    Arată mai mult